Change the Weather History Date:

Tuesday, March 19, 2013

  Actual Average Record
Temperature  
Mean Temperature 26 °F -  
Max Temperature 28 °F 33 °F 42 °F (2005)
Min Temperature 24 °F 26 °F 6 °F (2012)
Degree Days  
Heating Degree Days 39    
Moisture  
Dew Point 16 °F    
Average Humidity 66    
Maximum Humidity 74    
Minimum Humidity 59    
Precipitation  
Precipitation 0.00 in - - ()
Sea Level Pressure  
Sea Level Pressure 30.20 in    
Wind  
Wind Speed 22 mph (West)    
Max Wind Speed 30 mph    
Max Gust Speed 47 mph    
Visibility 9 miles    
Events      
Averages and records for this station are not official NWS values.
T = Trace of Precipitation, MM = Missing Value Source: NWS Daily Summary

Daily Weather History Graph

Daily Weather History Graph

Search for Another Location

Airport or City:

Trip Planner

Search our weather history database for the weather conditions in past years. The results will help you decide how hot, cold, wet, or windy it might be!

Date:

Astronomy

Mar. 19, 2013 Rise Set
Actual Time 8:36 AM AKDT 8:46 PM AKDT
Civil Twilight 7:59 AM AKDT 9:23 PM AKDT
Nautical Twilight 7:15 AM AKDT 10:08 PM AKDT
Astronomical Twilight 6:28 AM AKDT 10:55 PM AKDT
Moon 12:35 PM AKDT (3/19) 4:43 AM AKDT (3/19)
Length of Visible Light 13h 24m
Length of Day
12h 09m
Waxing Crescent, 51% of the Moon is Illuminated
Mar 19
Waxing Crescent
Mar 27
Full
Apr 2
Last Quarter
Apr 10
New
Apr 18
First Quarter

Hourly Weather History & Observations

Time (AKDT) Temp. Windchill Dew Point Humidity Pressure Visibility Wind Dir Wind Speed Gust Speed Precip Events Conditions
12:16 AM 28.4 °F 14.4 °F 17.6 °F 64% 30.19 in 10.0 mi WSW 23.0 mph 35.7 mph N/A   Overcast
12:36 AM 26.6 °F 14.7 °F 17.6 °F 69% 30.19 in 10.0 mi West 15.0 mph 29.9 mph N/A   Mostly Cloudy
12:56 AM 26.6 °F 13.1 °F 17.6 °F 69% 30.20 in 10.0 mi WSW 19.6 mph 28.8 mph N/A   Mostly Cloudy
1:16 AM 26.6 °F 13.1 °F 17.6 °F 69% 30.20 in 10.0 mi West 19.6 mph 27.6 mph N/A   Overcast
1:36 AM 26.6 °F 11.4 °F 17.6 °F 69% 30.19 in 10.0 mi WSW 25.3 mph 32.2 mph N/A   Overcast
1:56 AM 26.6 °F 12.7 °F 15.8 °F 64% 30.20 in 10.0 mi West 20.7 mph 28.8 mph N/A   Overcast
2:16 AM 26.6 °F 12.7 °F 17.6 °F 69% 30.19 in 10.0 mi WSW 20.7 mph 33.4 mph N/A   Overcast
2:36 AM 26.6 °F 13.1 °F 17.6 °F 69% 30.19 in 10.0 mi West 19.6 mph 26.5 mph N/A   Overcast
2:56 AM 26.6 °F 12.0 °F 17.6 °F 69% 30.20 in 9.0 mi West 23.0 mph 33.4 mph N/A   Overcast
3:16 AM 26.6 °F 12.7 °F 17.6 °F 69% 30.20 in 9.0 mi West 20.7 mph 34.5 mph N/A   Overcast
3:36 AM 26.6 °F 12.0 °F 15.8 °F 64% 30.20 in 10.0 mi West 23.0 mph 35.7 mph N/A   Overcast
3:56 AM 26.6 °F 12.4 °F 15.8 °F 64% 30.21 in 10.0 mi West 21.9 mph 38.0 mph N/A   Overcast
4:16 AM 26.6 °F 11.7 °F 17.6 °F 69% 30.21 in 10.0 mi West 24.2 mph 39.1 mph N/A   Overcast
4:36 AM 26.6 °F 12.0 °F 17.6 °F 69% 30.22 in 10.0 mi West 23.0 mph 36.8 mph N/A   Overcast
4:56 AM 26.6 °F 13.1 °F 17.6 °F 69% 30.22 in 10.0 mi West 19.6 mph 33.4 mph N/A   Overcast
5:16 AM 24.8 °F 12.4 °F 15.8 °F 69% 30.22 in 7.0 mi West 15.0 mph 29.9 mph N/A   Overcast
5:36 AM 24.8 °F 9.0 °F 15.8 °F 69% 30.21 in 8.0 mi West 25.3 mph 33.4 mph N/A   Overcast
5:56 AM 24.8 °F 9.0 °F 17.6 °F 74% 30.20 in 8.0 mi West 25.3 mph 33.4 mph N/A   Overcast
6:16 AM 24.8 °F 10.0 °F 15.8 °F 69% 30.20 in 9.0 mi West 21.9 mph 33.4 mph N/A   Overcast
6:36 AM 24.8 °F 10.7 °F 15.8 °F 69% 30.20 in 5.0 mi West 19.6 mph 38.0 mph N/A   Overcast
6:56 AM 24.8 °F 9.0 °F 15.8 °F 69% 30.20 in 4.0 mi WSW 25.3 mph 31.1 mph N/A   Overcast
7:16 AM 24.8 °F 9.0 °F 15.8 °F 69% 30.20 in 5.0 mi West 25.3 mph 33.4 mph N/A   Overcast
7:36 AM 24.8 °F 10.7 °F 15.8 °F 69% 30.19 in 5.0 mi WNW 19.6 mph 39.1 mph N/A   Overcast
7:56 AM 24.8 °F 11.5 °F 17.6 °F 74% 30.20 in 6.0 mi West 17.3 mph 36.8 mph N/A   Overcast
8:16 AM 24.8 °F 10.3 °F 15.8 °F 69% 30.20 in 9.0 mi West 20.7 mph 34.5 mph N/A   Mostly Cloudy
8:36 AM 24.8 °F 11.1 °F 15.8 °F 69% 30.21 in 7.0 mi West 18.4 mph 38.0 mph N/A   Overcast
8:56 AM 24.8 °F 9.3 °F 15.8 °F 69% 30.20 in 10.0 mi West 24.2 mph 40.3 mph N/A   Overcast
9:16 AM 24.8 °F 9.6 °F 15.8 °F 69% 30.20 in 10.0 mi WSW 23.0 mph 41.4 mph N/A   Mostly Cloudy
9:36 AM 24.8 °F 10.7 °F 15.8 °F 69% 30.18 in 10.0 mi West 19.6 mph 40.3 mph N/A   Mostly Cloudy
9:56 AM 24.8 °F 9.0 °F 14.0 °F 64% 30.18 in 10.0 mi WSW 25.3 mph 39.1 mph N/A   Clear
10:16 AM 26.6 °F 12.4 °F 15.8 °F 64% 30.18 in 10.0 mi West 21.9 mph 38.0 mph N/A   Clear
10:36 AM - - - N/A% 30.19 in 10.0 mi West 24.2 mph 41.4 mph N/A   Partly Cloudy
10:56 AM 26.6 °F 10.8 °F 15.8 °F 64% 30.19 in 10.0 mi WSW 27.6 mph 36.8 mph N/A   Partly Cloudy
11:16 AM 26.6 °F 10.8 °F 15.8 °F 64% 30.19 in 10.0 mi West 27.6 mph 41.4 mph N/A   Partly Cloudy
11:36 AM 26.6 °F 11.1 °F 15.8 °F 64% 30.19 in 10.0 mi West 26.5 mph 39.1 mph N/A   Partly Cloudy
11:56 AM 26.6 °F 11.4 °F 15.8 °F 64% 30.19 in 10.0 mi WSW 25.3 mph 32.2 mph N/A   Partly Cloudy
12:16 PM 26.6 °F 11.4 °F 15.8 °F 64% 30.19 in 10.0 mi WSW 25.3 mph 34.5 mph N/A   Partly Cloudy
12:36 PM - - - N/A% 30.18 in 10.0 mi WSW 27.6 mph 41.4 mph N/A   Mostly Cloudy
12:56 PM - - - N/A% 30.17 in 10.0 mi WSW 29.9 mph 47.2 mph N/A   Mostly Cloudy
1:16 PM 28.4 °F 16.6 °F 17.6 °F 64% 30.19 in 10.0 mi WSW 16.1 mph 43.7 mph N/A   Scattered Clouds
1:36 PM 28.4 °F 15.1 °F 17.6 °F 64% 30.19 in 10.0 mi West 20.7 mph 44.9 mph N/A   Scattered Clouds
1:56 PM 28.4 °F 15.1 °F 17.6 °F 64% 30.21 in 10.0 mi WSW 20.7 mph 43.7 mph N/A   Partly Cloudy
2:16 PM 26.6 °F 13.4 °F 17.6 °F 69% 30.22 in 10.0 mi West 18.4 mph 28.8 mph N/A   Partly Cloudy
2:36 PM 28.4 °F 14.1 °F 15.8 °F 59% 30.21 in 10.0 mi West 24.2 mph 31.1 mph N/A   Partly Cloudy
2:56 PM 28.4 °F 14.4 °F 15.8 °F 59% 30.20 in 10.0 mi West 23.0 mph 34.5 mph N/A   Clear
3:16 PM 28.4 °F 13.8 °F 15.8 °F 59% 30.21 in 10.0 mi West 25.3 mph 39.1 mph N/A   Clear
3:36 PM 28.4 °F 13.3 °F 15.8 °F 59% 30.19 in 10.0 mi WSW 27.6 mph 38.0 mph N/A   Clear
3:56 PM 26.6 °F 12.7 °F 15.8 °F 64% 30.18 in 10.0 mi West 20.7 mph 38.0 mph N/A   Clear
4:16 PM 26.6 °F 12.0 °F 15.8 °F 64% 30.18 in 10.0 mi West 23.0 mph 32.2 mph N/A   Clear
4:36 PM 26.6 °F 11.7 °F 15.8 °F 64% 30.17 in 10.0 mi West 24.2 mph 32.2 mph N/A   Clear
4:56 PM 26.6 °F 12.4 °F 15.8 °F 64% 30.18 in 10.0 mi West 21.9 mph 35.7 mph N/A   Clear
5:16 PM 26.6 °F 12.0 °F 15.8 °F 64% 30.19 in 10.0 mi West 23.0 mph 34.5 mph N/A   Clear
5:36 PM 26.6 °F 13.4 °F 15.8 °F 64% 30.20 in 10.0 mi West 18.4 mph 34.5 mph N/A   Clear
5:56 PM 26.6 °F 13.1 °F 15.8 °F 64% 30.19 in 10.0 mi West 19.6 mph 31.1 mph N/A   Clear
6:16 PM 26.6 °F 11.4 °F 15.8 °F 64% 30.20 in 10.0 mi West 25.3 mph 34.5 mph N/A   Clear
6:36 PM 26.6 °F 11.1 °F 15.8 °F 64% 30.20 in 10.0 mi West 26.5 mph 35.7 mph N/A   Partly Cloudy
6:56 PM 26.6 °F 11.7 °F 15.8 °F 64% 30.20 in 10.0 mi West 24.2 mph 36.8 mph N/A   Partly Cloudy
7:16 PM 26.6 °F 11.7 °F 15.8 °F 64% 30.20 in 10.0 mi WSW 24.2 mph 33.4 mph N/A   Clear
7:36 PM 26.6 °F 11.7 °F 14.0 °F 59% 30.20 in 10.0 mi WSW 24.2 mph 32.2 mph N/A   Clear
7:56 PM 26.6 °F 11.7 °F 14.0 °F 59% 30.21 in 10.0 mi WSW 24.2 mph 36.8 mph N/A   Clear
8:16 PM 24.8 °F 8.7 °F 12.2 °F 59% 30.20 in 10.0 mi WSW 26.5 mph 33.4 mph N/A   Clear
8:36 PM - - - N/A% 30.20 in 10.0 mi West 27.6 mph 35.7 mph N/A   Clear
8:56 PM 24.8 °F 8.1 °F 12.2 °F 59% 30.21 in 10.0 mi WSW 28.8 mph 33.4 mph N/A   Clear
9:16 PM 24.8 °F 9.6 °F 15.8 °F 69% 30.22 in 10.0 mi West 23.0 mph 34.5 mph N/A   Clear
9:36 PM 24.8 °F 9.6 °F 14.0 °F 64% 30.21 in 10.0 mi West 23.0 mph 29.9 mph N/A   Clear